December 23-24 Weather, Modesto CA

Data Source for Modesto weather for 8:30 December 23, 2002 through 9:00 a.m. December 24, 2002.

December 23

Time(PST) Temperature Dew Point Humidity Pressure Visibility Wind Direction Wind Speed Gust Speed Precipitation Events Conditions
7:53 PM 39.0 F 35.1 F 86% 30.09 in 10.0 miles ESE 4.6 mph - N/A  
8:53 PM 37.9 F 34.0 F 86% 30.10 in 10.0 miles Calm Calm - N/A   Clear
9:53 PM 37.0 F 34.0 F 89% 30.12 in 7.0 miles Calm Calm - N/A   Clear
10:53 PM 36.0 F 34.0 F 93% 30.12 in 9.0 miles ESE 4.6 mph - N/A   Clear
11:53 PM 34.0 F 33.1 F 96% 30.12 in 4.0 miles East 5.8 mph - N/A   Clear

December 24

Time(PST) Temperature Dew Point Humidity Pressure Visibility Wind Direction Wind Speed Gust Speed Precipitation Events Conditions
12:53 AM 36.0 F 35.1 F 97% 30.13 in 4.0 miles ESE 6.9 mph - N/A   Clear
1:10 AM 35.6 F 33.8 F 93% 30.13 in 2.5 miles ESE 6.9 mph - N/A   Clear
1:30 AM 35.6 F 33.8 F 93% 30.13 in 3.0 miles ESE 5.8 mph - N/A   Clear
1:53 AM 36.0 F 35.1 F 97% 30.15 in 4.0 miles ESE 6.9 mph - N/A   Clear
2:53 AM 36.0 F 35.1 F 97% 30.15 in 4.0 miles ESE 5.8 mph - N/A   Clear
3:53 AM 37.9 F 37.0 F 97% 30.16 in 4.0 miles SSE 4.6 mph - N/A   Clear
4:53 AM 37.0 F 35.1 F 93% 30.17 in 2.5 miles Calm Calm - N/A   Scattered Clouds
5:16 AM 35.6 F 35.6 F 100% 30.17 in 3.0 miles SSE 3.5 mph - N/A   Scattered Clouds
5:44 AM 35.6 F 33.8 F 93% 30.16 in 2.5 miles ESE 5.8 mph - N/A   Clear
5:53 AM 35.1 F 34.0 F 96% 30.16 in 2.5 miles ESE 6.9 mph - N/A   Clear
6:53 AM 34.0 F 33.1 F 96% 30.18 in 2.0 miles SE 3.5 mph - N/A   Clear
7:12 AM 35.6 F 33.8 F 93% 30.19 in 3.0 miles SE 3.5 mph - N/A   Clear
7:19 AM 35.6 F 33.8 F 93% 30.19 in 2.0 miles SSE 3.5 mph - N/A   Clear
7:53 AM 36.0 F 34.0 F 93% 30.20 in 2.0 miles ESE 4.6 mph - N/A   Clear
8:53 AM 37.9 F 36.0 F 93% 30.23 in 2.5 miles ESE 4.6 mph - N/A   Scattered Clouds